Other Public Products
Issued by NWS Grand Forks, ND

Home | Current Version | Previous Version | Text Only | Print | Product List | Glossary On
Versions: 1 2 3 4 5 6 7 8 9 10 11 12 13 14 15 16 17 18 19 20 21 22 23 24 25 26 27 28 29 30 31 32 33 34 35 36 37 38 39 40 41 42 43 44 45 46 47 48 49 50
000
FPUS83 KFGF 251631
OPUFGF
PRAIRIE TO PINES WEATHER ROUNDUP
NATIONAL WEATHER SERVICE EASTERN NORTH DAKOTA/GRAND FORKS ND
1100 AM CDT FRI MAY 25 2018

 **SATELLITE DATA USED TO AUGMENT SKY COVER AT AUTOMATED STATIONS**
 *****  WEATHER ACROSS EASTERN NORTH DAKOTA  *****

CITY           SKY/WX    TMP DP  RH WIND       PRES   REMARKS
GRAND FORKS    FAIR      82  61  48 W8        29.65F
GRND FORKS AFB FAIR      83  60  45 W7        29.66F
GRND FORKS NWS   N/A     84  60  43 W9        29.63F
BUXTON           N/A     85  60  42 W12         N/A
DEVILS LAKE    FAIR      77  58  51 SW9       29.70S
FARGO          FAIR      85  57  38 W15G22    29.69F
WAHPETON ARPT  FAIR      84  50  30 W15G22    29.73F
$$

 *****  WEATHER ACROSS CENTRAL AND WESTERN NORTH DAKOTA  *****

CITY           SKY/WX    TMP DP  RH WIND       PRES   REMARKS
JAMESTOWN      FAIR      82  58  43 W15       29.72F
BISMARCK       FAIR      81  58  45 SW12      29.76S
MINOT          FAIR      83  52  34 SW17      29.67S
MINOT AFB      FAIR      81  54  39 W18       29.65S
GARRISON         N/A     81  53  37 W14       29.71F
WILLISTON      FAIR      76  52  43 W15       29.75F
DICKINSON      FAIR      79  52  38 W20G25    29.81S
HETTINGER      FAIR      77  54  44 W17       29.86F
$$

 *****  OTHER OBSERVATIONS NORTHEAST NORTH DAKOTA  *****

CITY           SKY/WX    TMP DP  RH WIND       PRES   REMARKS
WALHALLA       FAIR      81  59  47 SW10      29.63F
LANGDON        FAIR      81  63  54 W12G17    29.68S
CAVALIER         N/A     81  59  47 VRB7      29.64S
GRAFTON        FAIR      82  61  47 W7        29.67S
CANDO          FAIR      81  55  41 SW10      29.68F
FORT TOTTEN      N/A     81  57  43 W5        29.95
ROLLA          FAIR      79  52  38 SW13G20   29.67S
RUGBY          NOT AVBL
 ***** THE ABOVE OBSERVATIONS ARE NON NWS ARE NOT QUALITY
        CONTROLLED AND MAY MIS-REPORT RAIN FOR SNOW...
$$

 *****  OTHER OBSERVATIONS SOUTHEAST NORTH DAKOTA *****

CITY           SKY/WX    TMP DP  RH WIND       PRES   REMARKS
COOPERSTOWN    FAIR      86  54  32 W17       29.71F
VALLEY CITY    FAIR      84  57  39 W12G20    29.74S
OAKES            N/A     82  59  44 W14G20    29.74F
GWINNER          N/A     86  54  32 W12G20    29.73F
SHEYENNE NWR     N/A     87  57  35 W12       29.95S
BUFFALO          N/A     85  50  29 W13         N/A
WYNDMERE       NOT AVBL
 ***** THE ABOVE OBSERVATIONS ARE NON NWS ARE NOT QUALITY
       CONTROLLED AND MAY MIS-REPORT RAIN FOR SNOW...
$$

  *****  WEATHER ACROSS NORTHERN MINNESOTA  *****

CITY           SKY/WX    TMP DP  RH WIND       PRES   REMARKS
FLAG ISLAND    FAIR      64  57  77 SE5       29.63F
WARROAD        FAIR      75  64  69 W10       29.65F
ROSEAU         FAIR      79  63  57 SW9       29.65S
HALLOCK        FAIR      81  59  47 W8        29.64S
THF RVR FALLS  FAIR      76  62  62 SW10      29.69S
HALSTAD          N/A     85  57  38 W14         N/A
FOSSTON        FAIR      81  55  41 SW12      29.71S
BAUDETTE       FAIR      79  58  48 W9G18     29.65S
WASKISH          N/A     75  63  64 SW8       29.69S
CROOKSTON      FAIR      82  57  42 W8        29.67F
$$
  *****  WEATHER ACROSS CENTRAL AND WEST MINNESOTA  *****

CITY           SKY/WX    TMP DP  RH WIND       PRES   REMARKS
BEMIDJI        FAIR      80  58  47 W13       29.71F
PARK RAPIDS    FAIR      83  59  44 W10G17    29.73F
WADENA         FAIR      81  61  50 SW8       29.74F
DETROIT LAKES  FAIR      81  54  39 W6        29.75S
MOORHEAD       FAIR      86  54  32 W10G18    29.70F
FERGUS FALLS   FAIR      84  59  42 W9        29.69S
ELBOW LAKE     FAIR      83  57  40 NW8       29.75S
MORRIS MN      FAIR      88  55  33 W9        29.74F
STAPLES        FAIR      82  55  39 W6        29.74F
WHEATON        FAIR      84  54  34 SW6       29.75S
$$
  *****  WEATHER ELSEWHERE ACROSS MINNESOTA  *****

CITY           SKY/WX    TMP DP  RH WIND       PRES   REMARKS
DULUTH         FAIR      78  63  59 SW10      29.73F
INTRNTL FALLS  FAIR      79  59  50 W13G18    29.66F
ELY            FAIR      79  61  53 SW10      29.69F
CLOQUET        FAIR      79  61  53 SW7       29.73F
BRAINERD       FAIR      79  62  56 SW7       29.75S
HIBBING        FAIR      76  62  62 SW9       29.71F
ALEXANDRIA     FAIR      84  60  44 W7        29.78S
SAINT CLOUD    FAIR      80  63  55 SW8       29.75F
MINNEAPOLIS    PTSUNNY   77  68  73 S9        29.79R
$$

  *****  WEATHER ACROSS SOUTH DAKOTA  *****

CITY           SKY/WX    TMP DP  RH WIND       PRES   REMARKS
SIOUX FALLS    FAIR      84  66  54 CALM      29.82S
BROOKINGS      FAIR      84  59  42 SW5       29.81F
WATERTOWN      FAIR      81  60  48 W6        29.80S
HURON          FAIR      84  64  50 SW7       29.78F
SISSETON         N/A     85  60  42 W10       29.74S
ABERDEEN       FAIR      87  58  37 NW8       29.77S
MITCHELL       FAIR      85  65  51 W7        29.81S
PIERRE         FAIR      81  64  56 W8        29.81S
MOBRIDGE       FAIR      80  62  54 VRB5      29.78F
RAPID CITY     FAIR      78  56  46 N10       29.93S
$$

  *****  SOME WEATHER IN NEARBY STATES *****

CITY           SKY/WX    TMP DP  RH WIND       PRES   REMARKS
GLASGOW MT     FAIR      76  51  41 NW12      29.81S
GREAT FALLS MT FAIR      72  48  42 SW14      29.95S
CHEYENNE WY    FAIR      74  40  29 CALM      30.14F
SCOTTSBLUFF NE FAIR      73  55  53 W9        30.01F
OMAHA NE       FAIR      81  62  52 SW7       29.85F
DES MOINES IA  PTSUNNY   77  67  71 SW10      29.86F
DAVENPORT IA   FAIR      82  64  54 SW14G20   29.91F
CHICAGO IL     FAIR      84  59  42 SW10      29.91F
EAU CLAIRE WI  FAIR      71  64  78 S9        29.79F
LA CROSSE WI   FAIR      79  65  62 SE10      29.83F
$$

  *****  SOME NATIONAL WEATHER *****

CITY           SKY/WX    TMP DP  RH WIND       PRES   REMARKS
LA GUARDIA NY  PTSUNNY   84  48  28 SW13      29.96F
RALEIGH NC     PTSUNNY   79  65  62 VRB6      30.12F
ATLANTA GA     PTSUNNY   79  70  74 E9        30.07F
NEW ORLEANS LA PTSUNNY   84  74  71 VRB3      30.01S HX  91
OKLAHOMA CITY  PTSUNNY   67  63  87 S13       29.95F
ALBUQUERQUE NM FAIR      76  25  15 N9        30.20F
SALT LAKE CITY SUNNY     75  39  27 S9G23     29.98S
LOS ANGELES CA FAIR      63  49  60 W8        30.12S
BOISE ID       FAIR      70  52  52 VRB3      29.91F
SEATTLE WA     CLOUDY    55  45  68 NE5       30.06R
$$

*** WEATHER ACROSS MANITOBA...SASKATCHEWAN AND ONTARIO ***
                ***ONTARIO***

CITY           SKY/WX    TMP DP  RH WIND       PRES   REMARKS
GERALDTON      PTSUNNY   75  63  64 VRB2      29.69S
THUNDER BAY    PTSUNNY   68  63  83 NE6       29.66F
SIOUX LOOKOUT  MOSUNNY   79  61  53 SW8       29.59F
TORONTO        PTSUNNY   82  54  36 W14G20    29.90F
BIG TROUT LK   SUNNY     55  39  54 E15G22    29.75R
PICKLE LAKE    LGT RAIN  68  63  83 W3        29.64S
DRYDEN         SUNNY     79  57  47 SW12G21   29.60F
KENORA         MOSUNNY   75  59  57 W7        29.63F
$$
                *** MANITOBA***

CITY           SKY/WX    TMP DP  RH WIND       PRES   REMARKS
BRANDON        MOSUNNY   72  63  73 S5        29.62F
DAUPHIN        MOSUNNY   73  59  60 NW5       29.59S
ISLAND LAKE    SHOWER    48  48 100 NE13G22   29.70S
PILOT MOUND      N/A     75  57  53 SW8         N/A
THE PAS        LGT RAIN  54  52  94 NE7       29.61S
THOMPSON       CLOUDY    45  34  65 NE16G25   29.81S
WINNIPEG       PTSUNNY   72  61  68 NW5       29.62S
LYNN LAKE      MOSUNNY   45  36  70 E13G26    29.81R
CHURCHILL      FLURRIES  30  28  93 E16       30.10S WCI  19
GILLAM         CLOUDY    37  30  75 NE16G24   29.92F
$$
                ***SASKATCHEWAN***

CITY           SKY/WX    TMP DP  RH WIND       PRES   REMARKS
ESTEVAN        SUNNY     77  54  44 NW20G26   29.69R
KINDERSLEY     MOSUNNY   70  52  52 NW18G25   29.75S
LLOYDMINSTER   MOSUNNY   66  55  68 NW17      29.71R
PRINCE ALBERT  LGT RAIN  63  59  88 SW5       29.59R
REGINA         MOSUNNY   72  54  53 W23G29    29.68F
YORKTON        CLOUDY    72  57  60 CALM      29.61S


USA.gov is the U.S. government's official web portal to all federal, state and local government web resources and services.